Regional Weather Roundup
Issued by NWS

Home | Current Version | Previous Version | Text Only | Print | Product List | Glossary On
Versions: 1 2 3 4 5 6 7 8 9 10 11 12 13 14 15 16 17 18 19 20 21 22 23 24 25 26 27 28 29 30 31 32 33 34 35 36 37 38 39 40 41 42 43 44 45 46 47 48 49 50
000
ASCA44 KEWX 251220
RWRMX

LATIN AMERICA AND CARIBBEAN REGIONAL WEATHER ROUNDUP
NATIONAL WEATHER SERVICE AUSTIN/SAN ANTONIO TX
700 AM CDT MON MAY 25 2015

NOTE: "FAIR" INDICATED FEW OR NO CLOUDS BELOW 12,000 FEET WITH NO
SIGNIFICANT WEATHER AND/OR OBSTRUCTIONS TO VISIBILITY.

BAJA CALIFORNIA

CITY           SKY/WX    TMP DP  RH WIND       PRES   REMARKS
LA PAZ         CLEAR     57  52  82 S12       29.92
S.J. DEL CABO  CLEAR     66  54  63 CALM      29.89
TIJUANA        CLOUDY    59  50  72 CALM      29.99R

NORTHWESTERN MEXICO

CITY           SKY/WX    TMP DP  RH WIND       PRES   REMARKS
HERMOSILLO     CLEAR     64  46  52 CALM      29.92R
CD. JUAREZ     CLEAR     63  36  36 CALM      29.96

NORTHEASTERN MEXICO

CITY           SKY/WX    TMP DP  RH WIND       PRES   REMARKS
CHIHUAHUA      CLEAR     46  18  31 S7        30.06  WCI  43
MATAMOROS      MOCLDY    77  77 100 SE7       29.87
MONTERREY      MOCLDY    72  70  94 E5        29.81R FOG
NUEVO LAREDO   CLOUDY    77  72  83 S9        29.79
REYNOSA        CLOUDY    75  72  88 SE7       29.83
SALTILLO       CLEAR     70  59  68 S7        30.05
TORREON        CLEAR     70  45  40 NE8       29.99R
CD. VICTORIA   MOCLDY    75  72  88 SE14      29.84

WESTERN MEXICO

CITY           SKY/WX    TMP DP  RH WIND       PRES   REMARKS
AGUASCALIENTES CLEAR     54  48  82 S6        30.24
COLIMA         PTCLDY    70  61  73 CALM      30.00S
DEL BAJIO      PTCLDY    57  55  94 CALM      30.28
GUADALAJARA    MOCLDY    63  55  77 SW5       30.16
MANZANILLO     PTCLDY    73  64  73 N6        29.85S
MAZATLAN       CLEAR     61  55  82 NE8       29.89R
P. VALLARTA    CLEAR     73  72  94 N2        29.89S
URUAPAN        CLOUDY    63  61  94 CALM      30.17
ZACATECAS      CLEAR     54  39  58 S12       30.24R

CENTRAL MEXICO

CITY           SKY/WX    TMP DP  RH WIND       PRES   REMARKS
CUERNAVACA     MOCLDY    66  54  63 CALM      30.14
MEXICO CITY    PTCLDY    57  52  82 E2        30.31S
MORELIA        PTCLDY    54  52  94 CALM      30.24
POZA RICA      CLOUDY    79  75  89 N7        29.86R HAZE
PUEBLA         MOCLDY    55  52  88 CALM      30.33R
QUERETARO      MOCLDY    61  59  94 CALM      30.29R
S. LUIS POTOSI PTCLDY    57  54  88 SE5       30.19R
TAMPICO        MOCLDY    79  75  89 SE6       29.85S HAZE
TOLUCA         FOG       46  41  81 CALM      30.37R VSB 1/2

SOUTHERN MEXICO

CITY           SKY/WX    TMP DP  RH WIND       PRES   REMARKS
ACAPULCO       PTCLDY    79  75  89 N3        29.86R
B. DE HUATULCO CLEAR     75  61  60 CALM      29.90
OAXACA         MOCLDY    61  59  94 SW2       30.20S
P. ESCONDIDO   PTCLDY    79  73  83 NE7       29.96
VERACRUZ       MOCLDY    73  70  88 CALM      29.83F
ZIHUATANEJO    CLEAR     77  72  83 CALM      29.86

YUCATAN PENINSULA

CITY           SKY/WX    TMP DP  RH WIND       PRES   REMARKS
CAMPECHE       MOCLDY    79  73  83 E14       29.90R
CANCUN         MOSUNNY   81  75  83 E7        30.01R
CHETUMAL       CLOUDY    82  73  74 E6        29.96
CD. DEL CARMEN MOCLDY    81  73  78 SE15G26   29.90
COZUMEL        MOSUNNY   72  72 100 CALM      30.00R
MERIDA         MOCLDY    79  75  89 E9        29.97R
MINATITLAN     MOCLDY    75  68  78 S7        29.83
TAPACHULA      PTCLDY    77  73  88 CALM      29.88R
TUX. GUTIERREZ MOCLDY    70  70 100 CALM      29.95R
VILLAHERMOSA   CLOUDY    77  72  83 CALM      29.90R

CENTRAL AMERICA

CITY           SKY/WX    TMP DP  RH WIND       PRES   REMARKS
BELIZE CITY    PTCLDY    82  73  74 E12       29.95R
MANAGUA        PTSUNNY   75  70  83 SE7       29.86S

CARIBBEAN

CITY           SKY/WX    TMP DP  RH WIND       PRES   REMARKS
ARUBA          MOSUNNY   82  73  74 E22       29.94R
CURACAO        MOSUNNY   82  73  74 E15       29.97R
KINGSTON       MOSUNNY   84  73  70 SE16      30.00R HX  91
NASSAU         MOSUNNY   82  73  74 SE7       30.16R
SAN JUAN       MOSUNNY   81  73  78 E9        30.07S
SANTO DOMINGO  MOSUNNY   79  72  78 NE9       30.03S
ST. CROIX      MOSUNNY   82  72  69 E17       30.07
ST. KITTS      MOSUNNY   84  72  65 E12       30.06R
ST. MAARTEN    LGT RAIN  82  70  65 E8        30.06R
ST. THOMAS     CLOUDY    84  72  65 E13       30.06

$$



USA.gov is the U.S. government's official web portal to all federal, state and local government web resources and services.